Theta_e
312 313 313 315 315 312 312 312 315 316 316 315 314 315 315 316 316 314 315 311 307 312 315 313 312 313 313 313 312 312 311 310 311 311 312 313 314 314 314 314 314 315 315 315 315 315 314 314 315 314 315 315 315 316 316 316 315 315 315 315 316 316 318 319 320 320 320 318 317 317 318 317 317 318 318 319 320 320 320 321 322 323 322 324 325 325
312 314 315 316 315 313 312 312 313 314 315 315 315 315 314 315 316 314 313 312 308 311 316 315 312 312 312 312 312 310 310 309 310 310 311 313 313 314 314 314 315 315 315 315 315 315 315 314 315 315 315 315 315 315 315 315 314 314 314 314 314 314 316 317 318 319 319 317 317 317 316 317 317 317 318 319 319 320 320 321 322 322 322 324 325 326
313 314 315 314 313 313 312 312 312 313 314 316 316 316 316 315 315 314 313 313 311 310 316 316 312 312 311 310 310 309 309 310 311 311 312 314 313 313 314 314 315 315 315 315 315 315 315 315 315 315 315 315 315 315 314 315 314 315 314 314 314 314 314 315 316 317 317 317 317 316 317 317 317 318 318 318 319 320 320 320 321 321 321 322 324 325
315 315 314 312 312 313 313 311 311 313 313 315 316 316 317 314 314 318 316 313 311 310 313 314 312 312 311 310 310 309 309 310 311 312 312 312 312 313 314 314 314 315 315 315 315 316 315 315 315 315 315 315 314 315 314 314 314 314 314 314 313 313 313 313 314 315 316 317 317 317 317 318 318 319 320 320 320 320 320 320 320 320 321 322 323 324
317 314 311 311 313 314 313 311 311 312 312 313 315 316 316 313 313 316 315 313 312 311 310 311 313 312 312 312 312 311 310 309 310 311 310 311 312 313 314 314 315 315 315 315 315 316 315 315 315 315 315 315 315 314 314 314 314 314 313 313 313 313 313 313 313 313 314 316 317 317 318 318 319 320 321 322 320 319 318 318 319 320 321 322 322 323
316 313 311 313 314 313 313 311 312 312 312 313 314 315 317 316 313 313 314 313 313 315 313 311 314 316 317 315 312 313 312 310 309 308 308 310 311 313 314 314 315 316 315 316 315 315 316 315 315 315 315 315 315 314 314 314 314 313 313 313 313 313 312 312 312 313 313 314 315 316 317 317 318 318 318 318 317 317 317 317 318 319 320 321 322 323
315 312 312 313 313 314 314 312 312 313 313 314 314 315 317 317 315 314 313 313 316 318 314 310 313 317 319 315 314 314 313 312 310 307 307 309 311 311 314 315 315 316 315 316 316 316 316 315 315 315 315 315 315 314 314 314 314 314 313 313 313 313 312 312 312 312 313 313 314 315 315 316 316 316 315 315 315 316 317 317 318 319 319 320 320 321
314 312 312 313 313 314 314 313 313 312 314 316 314 313 315 314 313 313 313 313 317 317 314 311 311 313 313 313 315 315 313 312 311 310 308 308 310 312 313 314 315 315 316 315 316 316 316 315 316 315 316 315 315 314 314 314 314 314 314 314 313 313 313 313 312 312 312 313 313 314 314 315 315 315 315 315 315 316 317 319 319 319 319 319 319 320
311 312 313 313 313 313 313 314 312 311 315 316 311 312 314 314 314 314 312 313 316 314 312 313 312 312 314 314 315 314 313 313 313 314 312 309 311 313 313 315 315 316 316 315 315 315 316 316 315 315 315 315 315 315 314 314 314 314 314 314 314 313 313 313 313 312 312 312 312 313 314 314 314 314 315 316 316 316 318 319 320 321 320 320 320 320
309 311 311 312 314 313 313 314 311 313 315 310 308 313 316 319 319 315 313 313 314 314 313 316 315 313 316 316 314 312 312 313 313 314 312 310 312 314 314 314 315 315 316 315 315 315 315 315 315 315 315 315 315 315 315 314 314 314 314 314 313 313 314 313 313 313 312 312 312 312 313 313 314 314 315 316 316 316 317 319 319 320 320 319 320 320
308 309 310 312 313 311 311 310 308 312 312 307 311 316 316 320 321 318 320 315 313 315 314 317 317 314 315 316 314 314 313 312 312 313 312 310 312 314 315 315 314 315 315 314 314 314 314 314 314 314 314 315 315 315 315 315 314 314 314 314 314 314 313 314 313 313 313 313 313 313 312 313 313 314 315 315 316 315 316 317 317 318 318 318 319 320
307 309 310 310 309 308 310 310 308 309 308 310 319 318 314 319 317 315 320 316 313 316 314 313 315 314 316 316 314 314 314 313 312 313 313 311 311 314 315 316 315 314 314 313 313 313 314 314 314 314 314 314 314 314 314 314 314 314 314 314 314 314 314 313 314 313 314 313 313 313 313 313 313 314 314 315 315 315 315 316 316 317 318 319 321 321
309 310 310 308 307 308 311 313 310 309 309 313 319 316 314 317 314 313 316 315 314 315 310 309 311 311 314 316 315 315 314 313 310 310 312 311 311 314 315 315 314 313 312 313 313 313 313 314 314 314 314 314 314 314 314 313 314 313 314 314 314 314 313 313 314 314 313 314 313 314 314 314 314 314 314 314 315 315 315 316 317 318 319 321 322 323
312 312 310 309 308 309 312 313 311 310 312 313 314 315 315 315 314 315 315 315 317 314 308 308 310 312 313 315 317 316 313 312 309 308 310 309 310 313 314 313 311 312 313 313 313 314 314 314 314 314 313 314 314 314 314 314 313 313 313 314 314 314 314 313 314 313 314 314 313 314 314 314 314 314 315 315 315 316 316 317 318 319 321 322 323 324
317 316 312 311 310 309 312 312 310 310 312 313 314 316 315 315 318 319 317 316 317 314 309 307 312 316 317 315 314 311 308 308 309 310 309 309 310 312 312 311 311 312 312 313 313 313 314 314 314 314 313 314 315 314 314 313 313 313 313 314 314 314 314 313 314 313 313 314 313 314 314 314 314 315 316 316 316 317 318 319 320 322 323 324 325 326
318 317 311 309 308 309 311 310 308 310 311 312 315 316 314 316 320 319 316 314 314 315 311 309 314 317 316 315 311 308 308 309 309 309 309 310 311 311 311 312 312 314 313 313 313 313 313 313 313 314 314 314 314 314 314 313 313 313 313 313 313 314 314 314 314 314 313 313 313 313 313 314 315 315 316 317 318 319 320 321 323 324 325 326 327 327
318 315 310 308 307 307 310 309 308 311 313 311 312 314 313 316 319 316 311 308 311 315 314 311 313 314 314 315 313 311 313 313 310 309 307 309 311 310 311 313 313 314 314 313 313 313 313 313 312 314 314 314 314 313 313 313 312 313 313 313 314 314 314 314 314 314 314 314 313 313 313 314 314 315 316 317 318 319 321 322 324 325 326 327 327 327
318 314 309 310 310 307 306 309 308 308 311 312 312 312 311 314 317 317 314 311 311 314 315 313 312 312 314 317 318 314 313 313 313 311 308 307 309 309 311 314 314 314 313 313 313 313 313 313 312 313 313 313 314 314 313 313 313 313 313 313 314 313 314 314 314 314 314 313 313 313 313 313 314 315 316 317 318 320 322 324 324 326 326 326 327 327
317 316 311 309 311 308 306 309 310 307 307 310 311 312 313 315 315 315 315 315 313 313 316 316 312 310 312 315 317 314 313 315 314 313 312 309 307 309 311 313 313 312 313 313 313 313 312 312 312 313 313 313 313 313 313 313 313 313 313 314 314 314 314 314 314 314 314 313 313 313 313 313 314 315 316 318 319 321 323 324 325 326 326 326 327 327
315 319 314 309 310 310 308 310 312 310 308 308 309 310 313 315 314 314 313 314 315 314 316 319 316 313 313 313 314 313 314 317 315 315 316 311 307 310 311 312 312 311 312 313 313 313 312 312 313 313 313 312 313 313 313 313 313 313 313 313 313 314 314 314 314 314 315 314 314 314 313 314 314 315 317 318 320 322 323 324 325 325 325 325 325 326
312 317 316 310 309 310 310 310 311 311 309 309 310 310 310 311 312 315 313 312 317 317 316 317 316 317 320 316 313 312 312 314 315 315 315 310 307 310 311 311 312 311 311 312 313 312 312 312 313 313 313 312 312 314 314 314 314 313 313 312 312 313 312 313 313 314 314 315 315 315 315 314 315 316 317 319 320 322 322 323 323 323 323 324 325 326
312 314 314 312 310 310 311 310 309 311 311 310 311 310 310 311 312 314 313 312 314 316 317 316 313 317 321 315 312 314 313 312 312 311 311 310 308 310 311 311 312 312 312 312 312 312 312 313 313 313 312 311 312 314 314 314 314 314 314 313 312 312 312 312 312 312 313 313 314 315 315 315 316 316 317 319 319 320 320 320 320 320 321 321 322 323
312 313 312 311 311 312 312 307 302 307 311 311 311 311 311 311 311 313 314 313 312 312 313 314 313 314 316 314 313 314 312 309 308 306 307 309 309 310 311 311 311 311 311 312 312 312 312 313 313 312 312 311 311 313 314 314 314 314 314 314 313 312 312 311 311 311 311 311 312 313 314 315 315 316 316 317 316 317 316 316 317 318 320 320 321 323
312 314 312 312 313 314 313 308 304 307 311 311 311 311 311 310 310 314 317 316 313 312 311 311 312 312 314 315 311 308 306 305 306 306 306 307 308 309 310 311 311 310 310 312 312 312 313 313 313 312 312 312 311 313 314 314 314 314 314 314 314 313 312 311 310 310 310 310 311 312 312 313 313 314 314 314 314 314 314 314 317 319 320 321 322 323
315 315 313 312 313 314 314 312 311 310 310 311 311 310 309 310 311 312 313 312 313 314 313 312 313 312 312 314 310 306 308 309 306 306 306 306 308 309 310 310 310 310 311 311 311 312 313 313 313 313 312 312 312 313 314 314 314 314 314 314 314 313 313 312 311 311 310 310 310 311 311 311 312 312 312 312 312 312 312 314 316 318 320 322 322 321
317 315 312 314 314 314 314 314 314 312 310 312 314 311 309 311 311 311 313 312 312 313 313 313 313 312 310 312 311 310 313 314 308 305 306 308 307 309 310 309 310 311 311 312 312 312 312 311 312 312 312 312 312 314 314 314 314 314 314 314 314 314 313 313 313 312 311 311 310 310 311 310 311 310 310 310 310 311 313 314 316 318 320 321 319 318
317 313 312 315 314 313 315 314 314 314 311 312 314 311 310 310 310 312 316 314 312 313 312 312 312 313 311 312 315 315 316 319 315 307 306 309 309 309 310 310 310 311 311 312 311 311 311 311 311 311 311 312 313 314 314 314 314 314 314 314 314 314 313 313 313 312 312 312 311 311 310 310 310 310 310 309 310 313 315 315 316 317 318 318 319 320
318 313 312 315 313 314 319 317 314 315 312 312 313 311 311 311 310 313 314 313 313 313 312 312 312 312 312 312 317 319 319 321 316 307 306 309 310 311 311 310 311 311 311 311 311 311 311 311 311 311 311 312 313 314 314 314 314 314 314 314 314 314 314 314 313 313 313 312 312 312 311 311 311 310 310 310 311 314 314 313 315 318 318 320 322 323
316 313 312 314 313 315 320 318 314 314 313 312 313 312 311 311 311 312 312 312 313 313 312 313 312 311 311 311 313 314 314 313 310 306 307 310 311 311 311 310 311 311 311 311 311 311 311 311 311 311 312 313 314 314 314 314 314 314 314 314 314 314 314 314 314 314 314 314 314 313 313 313 312 311 311 310 312 313 312 314 318 321 322 322 322 322
312 313 313 312 312 313 316 315 314 315 314 312 312 312 310 310 310 311 311 311 311 312 312 312 313 313 312 312 313 311 309 308 307 307 309 311 311 311 311 311 311 311 311 311 311 311 311 311 311 311 312 314 314 314 314 314 314 314 314 314 314 314 314 314 314 314 314 314 314 314 314 313 312 313 311 310 313 314 314 315 318 319 320 320 319 319
312 314 313 311 311 311 312 312 313 313 314 313 312 311 310 309 310 310 310 311 311 311 311 311 313 313 310 310 309 306 306 307 308 309 310 311 311 311 311 312 311 311 311 312 312 311 311 311 311 312 313 313 314 314 314 314 314 314 314 314 314 314 314 314 314 314 314 314 314 314 314 314 313 314 312 311 314 317 317 318 319 318 318 318 317 317
312 313 311 311 312 311 309 311 312 311 313 313 312 311 310 309 310 310 310 311 311 311 311 311 311 311 311 310 307 305 306 306 306 307 309 310 310 310 311 312 311 312 312 312 312 312 312 312 312 312 313 313 314 314 314 314 314 313 314 314 314 314 314 314 314 314 314 314 314 313 314 314 313 314 314 312 314 315 316 317 319 319 318 317 316 315
312 313 311 311 313 311 308 310 312 312 313 313 312 311 310 310 310 310 311 311 311 311 312 311 311 311 313 314 312 312 313 309 306 307 310 310 310 311 311 312 311 312 312 312 312 312 312 312 311 311 312 312 313 313 313 313 313 313 313 313 314 313 313 313 313 313 313 313 314 313 314 314 313 314 314 314 314 315 316 316 316 316 315 315 315 314
313 313 311 312 314 312 309 311 313 313 313 313 313 312 310 310 311 311 311 311 311 311 311 311 311 313 313 313 312 314 315 313 310 310 311 312 311 311 311 311 311 312 312 312 312 312 312 312 312 311 311 311 312 312 313 312 312 312 312 312 313 313 313 313 313 313 313 313 313 313 313 313 314 314 314 314 314 315 315 315 314 314 313 314 314 315
313 312 312 313 313 310 309 312 313 313 312 313 315 314 311 310 310 311 311 311 310 311 311 311 312 313 312 310 310 310 311 312 312 311 312 312 311 311 311 311 311 312 312 312 312 311 312 312 311 311 311 311 311 311 312 312 312 312 311 312 312 313 313 313 313 313 313 313 313 313 313 313 313 313 313 314 314 314 314 314 314 314 314 314 315 314
312 311 312 313 312 309 309 312 313 313 313 313 314 313 311 311 311 311 311 312 310 310 311 311 310 312 309 306 307 310 311 311 311 310 311 311 311 311 311 311 311 312 312 312 312 311 312 312 311 311 311 311 311 310 311 312 312 312 311 311 311 312 313 313 313 313 313 313 313 313 313 313 313 313 313 313 314 314 314 314 314 314 315 314 313 311
311 311 311 311 311 310 311 312 314 314 314 314 312 311 310 311 311 311 311 312 311 310 310 310 310 311 308 305 306 309 310 309 309 310 311 311 311 311 311 311 312 312 312 312 312 311 311 311 311 311 311 311 311 311 311 311 311 311 311 311 311 312 313 313 313 313 313 313 313 313 313 313 313 313 313 313 313 313 314 314 314 314 314 312 311 310
311 311 311 311 311 312 312 312 313 314 313 313 313 311 309 308 309 311 312 312 312 310 309 309 310 310 309 306 306 307 308 309 310 310 310 310 311 312 312 312 312 312 312 312 311 311 311 311 311 311 311 311 311 311 311 311 310 310 310 310 310 311 312 313 313 313 313 313 313 312 313 313 312 312 312 312 313 313 313 313 313 313 312 311 310 309
312 313 313 313 312 312 313 311 312 312 312 313 315 313 309 306 308 312 313 313 312 310 308 308 310 309 308 307 306 306 309 311 311 309 310 311 312 312 312 312 312 312 312 311 311 311 311 311 311 311 311 311 311 311 311 311 311 310 310 310 310 310 312 312 312 312 313 312 313 313 312 312 312 312 312 312 312 312 312 312 312 312 311 309 309 308
313 312 312 312 312 312 312 312 313 313 312 315 316 312 308 307 309 313 314 314 313 311 308 308 309 308 307 306 306 307 309 311 310 310 311 312 311 311 311 311 311 312 312 312 311 311 311 311 311 311 311 311 311 311 311 311 311 311 310 310 310 310 311 312 312 312 312 312 312 312 312 312 312 312 312 312 312 312 312 312 312 311 310 309 308 307
312 313 313 312 312 312 312 313 314 313 314 316 313 306 305 309 312 314 314 313 311 308 307 308 308 308 307 306 306 307 309 310 311 311 311 311 311 311 311 311 311 311 311 311 311 311 311 311 311 311 311 311 311 311 311 311 311 311 311 310 310 310 311 312 312 312 312 312 312 312 312 312 312 312 312 311 311 311 311 311 311 310 309 308 307 306
312 313 315 313 312 312 312 313 314 314 315 315 309 304 306 312 314 312 311 310 309 307 307 308 308 308 308 307 306 308 309 310 310 309 309 310 310 310 311 311 311 311 311 311 311 311 311 311 311 311 311 311 311 311 311 311 311 311 311 311 310 311 311 311 312 312 312 311 311 312 311 311 311 311 311 311 311 311 311 310 309 309 308 307 307 306
312 313 313 313 312 313 313 313 314 315 313 309 305 305 309 313 312 310 310 310 309 308 309 309 308 308 309 307 307 309 310 309 308 308 309 310 310 310 311 310 311 311 311 311 311 310 311 311 311 311 311 311 311 311 311 311 311 310 311 311 311 310 311 311 311 311 311 311 311 311 311 311 311 311 311 311 311 310 310 309 309 308 307 306 306 305
312 312 313 313 312 313 313 313 314 314 309 306 307 309 310 310 309 309 311 311 308 308 310 311 310 310 310 309 309 309 308 308 308 308 309 309 309 310 310 310 310 311 310 310 310 310 310 310 310 310 310 310 310 310 310 310 310 310 311 310 311 311 310 310 311 311 311 311 311 311 310 310 310 310 310 310 310 310 309 309 308 307 307 306 305 305
312 311 313 314 312 312 313 312 310 309 306 306 309 309 309 309 308 309 310 310 309 309 310 310 310 311 310 310 310 309 309 309 309 309 309 309 309 309 309 309 310 310 310 310 310 310 310 310 310 310 310 310 310 310 310 310 310 310 310 310 310 310 310 310 310 311 311 311 311 310 310 310 310 310 310 310 310 309 309 308 307 307 306 305 305 303
312 310 312 315 312 311 312 309 306 305 304 305 308 309 309 310 309 308 309 310 310 311 310 310 311 311 310 310 310 309 310 310 310 309 309 309 309 309 309 309 309 310 310 310 310 310 310 310 310 310 310 310 309 310 310 310 310 310 310 310 310 310 310 310 310 310 310 310 310 310 310 310 309 309 309 309 309 308 308 307 307 307 306 306 304 302
309 308 311 314 312 311 312 310 307 307 306 305 307 308 309 310 310 308 308 309 310 310 310 310 310 310 310 310 310 310 310 310 309 309 309 309 309 309 309 309 309 309 309 309 309 309 310 309 310 310 309 310 310 310 310 310 310 310 310 310 310 310 310 309 309 310 310 310 310 309 309 309 309 309 309 309 308 308 307 306 306 306 306 306 304 301
308 307 311 315 312 310 312 310 306 306 307 306 307 308 308 309 309 308 308 309 309 310 310 309 310 310 310 310 310 309 309 309 309 309 309 309 309 309 309 309 309 309 309 309 309 309 309 309 309 309 309 310 310 309 309 310 309 310 310 310 310 310 310 310 309 309 309 309 309 309 309 309 309 309 309 308 308 308 307 306 306 306 306 306 305 303
307 307 311 314 312 309 310 310 307 307 307 306 305 307 308 309 309 309 309 309 310 309 309 309 309 310 310 310 309 309 309 309 309 309 309 309 309 309 309 309 309 309 309 309 309 309 309 309 309 309 309 310 310 309 309 309 309 309 309 309 310 310 310 309 309 309 309 309 308 308 308 308 308 308 308 308 307 307 307 306 306 306 305 304 303 301
308 310 310 311 311 310 310 308 307 309 310 306 304 306 308 309 310 309 309 309 309 309 309 309 309 309 309 309 309 309 309 309 309 309 309 309 309 309 309 309 309 309 309 309 309 309 309 309 309 309 310 310 309 309 309 309 309 309 309 309 309 309 309 309 309 309 309 308 308 308 308 308 308 307 307 307 307 306 306 305 305 304 303 301 299 297
309 310 309 309 310 311 310 307 306 308 310 308 307 308 309 309 309 309 309 310 310 309 309 309 309 309 309 309 309 309 309 309 309 309 309 309 309 309 309 309 309 309 309 309 309 309 309 309 309 309 309 309 309 309 309 309 309 309 308 308 308 308 308 308 308 308 308 308 308 308 307 307 307 307 307 306 306 306 305 305 304 303 300 298 295 294
Wind_Speed
14 7 6 8 8 9 9 10 9 6 6 5 4 4 4 4 5 4 4 5 1 3 5 7 7 8 10 10 17 23 14 13 18 18 21 24 22 23 23 25 27 28 29 26 25 27 28 27 26 27 28 29 30 29 29 28 28 28 27 29 31 31 31 32 33 32 32 32 31 31 32 32 32 32 32 32 31 31 29 28 27 26 25 24 23 22
11 8 8 9 9 11 11 10 9 6 5 4 4 4 3 3 5 5 4 4 1 2 4 4 5 9 11 10 18 21 10 11 19 19 22 27 27 27 25 26 26 26 27 27 26 28 29 28 27 28 29 30 32 31 29 29 28 28 28 29 30 31 33 34 34 34 34 33 32 32 32 31 32 33 33 32 32 31 30 29 28 27 26 25 24 24
7 7 7 9 9 9 8 7 8 6 5 4 4 3 3 3 3 6 4 3 1 2 4 3 3 9 11 10 16 19 13 16 24 24 25 28 26 27 27 28 28 27 27 26 25 27 29 29 28 28 29 30 30 30 30 30 30 30 30 30 30 30 33 35 35 35 35 34 33 32 31 30 32 32 32 32 31 30 29 29 28 28 28 26 25 25
7 7 9 13 11 10 7 6 8 5 4 4 4 4 4 2 1 5 4 3 0 1 2 3 4 7 8 7 12 20 21 23 29 29 28 29 27 28 30 30 31 31 31 30 27 26 27 29 30 30 30 29 30 30 31 32 32 31 31 31 31 31 32 34 35 35 35 34 33 33 32 31 31 32 31 30 30 30 29 29 29 29 28 27 26 25
7 8 17 16 10 11 8 7 8 6 4 3 4 6 4 3 5 6 3 3 3 2 1 2 7 8 8 10 10 14 16 18 25 26 25 29 30 31 33 32 32 33 34 34 31 29 28 28 29 30 30 29 30 31 31 31 31 31 31 31 31 31 32 33 33 34 34 35 35 34 34 34 34 34 33 32 32 31 30 30 30 29 28 27 26 25
5 12 20 13 7 10 8 6 8 8 5 3 4 7 7 7 6 3 3 4 3 4 2 1 6 7 6 10 11 9 8 9 15 17 19 26 27 29 32 32 33 33 33 34 33 32 32 30 28 29 30 31 31 31 31 30 29 30 31 31 32 32 32 33 33 33 34 35 36 37 37 37 37 37 36 35 33 31 31 30 29 28 26 26 26 25
3 11 16 12 10 11 10 8 8 9 6 3 6 8 8 7 5 2 2 2 0 4 3 2 5 7 5 6 8 7 9 10 10 9 15 23 24 26 30 30 32 33 34 35 35 34 34 33 31 29 31 33 33 32 30 29 29 29 31 32 32 33 33 34 34 34 34 36 37 38 38 38 38 38 37 35 32 31 30 29 28 26 25 24 24 24
7 12 10 11 11 8 9 9 8 12 8 4 6 10 9 6 5 3 2 1 3 3 3 2 2 6 6 6 6 6 8 9 8 8 13 21 26 28 30 31 32 33 35 36 37 36 36 35 34 32 32 33 33 32 32 31 29 29 29 31 32 33 34 35 35 35 35 36 37 38 39 38 38 38 36 34 32 31 30 29 28 26 25 24 23 23
8 14 13 15 12 8 11 10 11 15 7 4 5 9 8 6 5 4 2 2 1 3 5 1 2 5 7 5 4 4 8 11 12 11 11 18 26 28 29 32 33 34 37 38 39 38 37 35 35 34 34 33 33 34 34 33 30 28 28 30 32 32 34 35 35 36 36 36 37 37 38 39 38 37 35 33 32 31 30 30 29 27 26 24 23 23
4 12 17 17 11 9 8 6 12 13 4 4 7 7 5 4 4 3 2 2 1 3 7 4 3 5 8 5 4 2 7 13 13 9 10 17 24 25 26 29 31 33 37 38 38 37 36 35 34 35 36 36 36 36 36 35 33 31 30 31 33 33 33 34 35 36 36 36 36 37 38 39 38 37 35 34 33 32 31 31 30 29 28 26 25 23
2 8 13 10 8 8 7 6 8 10 9 10 7 7 7 5 4 3 1 2 0 7 6 6 7 4 7 4 7 5 6 10 10 7 9 15 23 28 28 28 28 29 31 32 32 32 33 33 33 35 37 38 38 39 40 39 38 36 33 32 32 32 32 33 34 35 35 35 36 37 38 38 38 37 36 35 34 34 33 32 31 30 28 27 26 24
4 9 7 4 8 11 11 6 3 6 13 10 5 5 5 3 3 3 3 2 4 8 2 3 5 5 7 5 5 5 5 5 8 8 9 13 22 30 32 32 29 24 23 24 26 28 30 31 32 34 36 36 37 39 41 41 40 39 35 33 32 32 32 32 33 33 34 35 35 36 36 37 36 36 36 36 35 34 33 32 31 30 29 27 26 24
3 3 1 1 8 12 11 6 4 2 7 7 4 6 5 1 1 1 2 1 5 6 1 2 1 4 11 6 4 7 7 6 10 12 14 16 23 30 32 31 23 17 18 20 20 23 25 29 30 31 32 32 33 35 38 39 40 39 36 35 33 32 32 32 32 32 32 33 34 34 35 35 35 35 35 35 34 33 32 31 30 29 28 27 26 24
2 4 1 3 4 10 12 9 4 2 5 7 7 7 6 4 3 4 4 1 4 5 2 1 1 4 9 4 6 11 10 11 14 17 20 20 22 26 26 22 16 14 17 16 16 18 19 23 26 28 29 29 30 31 34 36 38 38 38 37 34 32 31 31 32 32 32 32 32 32 32 33 33 34 34 33 32 32 31 29 29 27 26 26 24 22
9 2 5 8 5 10 12 10 10 9 7 8 7 6 5 6 5 6 5 3 3 2 2 2 2 4 4 3 6 10 11 14 16 17 17 18 22 23 23 22 19 20 20 17 16 16 15 16 19 23 27 28 29 29 30 33 36 37 38 38 36 33 31 31 32 32 32 32 31 31 31 31 32 32 32 32 31 30 29 28 27 25 25 24 22 20
11 5 3 2 5 13 12 8 11 13 8 5 4 5 4 5 4 3 4 4 4 1 1 2 4 4 4 6 10 9 10 13 16 18 17 21 25 22 23 26 26 28 27 24 23 20 16 15 14 16 21 25 26 25 26 28 32 35 36 36 36 33 32 31 31 31 31 31 31 31 31 31 31 31 31 30 29 28 27 26 25 24 23 22 20 19
9 4 3 4 4 11 12 10 11 12 9 2 3 7 5 3 7 5 2 1 4 3 3 2 6 6 3 8 11 9 11 10 11 13 16 23 25 21 24 30 30 29 27 25 26 25 23 20 17 14 14 18 21 20 21 23 27 30 31 33 33 32 32 31 31 31 30 31 32 32 31 31 31 31 30 29 27 26 25 24 23 23 22 21 20 20
7 3 3 1 5 6 9 14 10 6 8 6 6 8 4 3 3 4 1 2 3 3 4 2 8 7 2 6 5 2 7 10 10 10 11 15 17 19 25 30 29 27 24 23 23 26 27 25 20 15 13 14 16 16 16 18 21 25 27 29 31 31 32 31 31 31 31 32 32 32 32 31 31 30 29 27 25 24 24 24 23 23 23 22 22 21
6 4 3 1 4 2 3 10 6 1 2 5 7 8 6 3 4 3 3 2 2 3 4 3 5 5 6 8 4 1 5 7 9 10 9 10 13 18 23 25 24 24 22 20 19 22 25 24 20 16 14 13 13 13 13 14 16 19 21 24 26 28 29 29 30 31 31 32 32 32 32 31 30 29 27 26 25 24 24 24 24 24 24 23 22 22
6 5 1 1 1 2 2 5 8 5 1 3 5 6 2 2 5 4 3 3 4 4 4 4 4 4 7 7 6 7 9 7 7 9 9 12 16 18 17 17 18 19 18 16 16 18 21 23 21 17 14 13 12 12 12 12 14 16 18 21 22 24 26 27 28 29 30 31 30 30 30 30 29 28 27 25 24 24 24 24 24 24 24 23 21 21
4 3 3 1 2 3 4 4 9 11 7 4 7 8 5 2 3 2 2 2 4 5 4 2 4 6 5 4 9 12 12 10 12 12 11 15 17 15 12 12 13 14 14 14 15 17 20 22 20 17 14 13 12 11 11 11 12 14 16 19 20 23 24 25 26 26 27 27 27 27 27 27 27 26 25 25 24 25 24 24 25 24 23 22 21 22
4 3 6 4 2 4 4 4 3 7 9 9 7 8 9 6 4 4 6 3 3 4 4 3 5 9 5 4 8 10 10 11 13 11 12 16 15 10 10 10 10 10 10 11 12 15 20 21 19 16 14 13 11 10 11 11 12 13 14 15 16 18 20 21 23 23 24 24 24 24 24 24 24 24 24 24 24 24 24 24 24 23 23 23 22 22
3 5 6 4 4 5 4 3 1 3 5 5 4 5 7 6 5 6 7 4 3 1 2 4 2 9 5 6 7 9 10 10 9 7 9 15 13 8 9 12 11 10 10 12 12 14 18 19 17 16 15 14 13 11 11 11 11 12 12 12 13 13 15 16 19 20 21 21 21 21 21 21 21 21 22 22 23 23 23 23 23 22 21 21 21 20
3 5 5 4 1 3 4 2 1 1 2 5 8 7 8 9 8 5 3 4 4 4 3 3 4 9 5 4 6 8 9 8 9 10 12 17 15 10 11 13 13 14 12 12 14 15 17 18 17 17 17 16 14 12 11 10 10 10 10 11 11 11 12 12 14 16 17 18 18 18 19 19 19 20 21 21 22 22 23 22 21 21 20 20 21 23
5 5 6 7 3 2 3 2 2 3 4 6 6 5 7 9 8 4 2 3 2 6 7 5 8 11 4 1 4 7 7 8 13 13 12 16 18 14 13 13 12 12 11 12 14 14 16 17 17 18 18 17 14 12 11 9 9 9 9 10 10 11 11 11 11 12 12 13 14 15 16 17 18 19 20 21 21 21 21 20 20 20 20 21 23 22
5 5 7 10 10 9 9 8 6 6 4 2 2 6 9 11 12 7 3 3 5 7 8 7 12 10 1 2 3 4 4 7 10 7 6 11 14 13 12 12 10 8 8 11 13 13 14 16 17 18 18 16 14 12 10 9 9 10 10 11 11 11 11 11 10 10 10 11 12 13 14 15 17 17 17 18 18 18 19 19 19 20 21 21 20 18
4 3 7 9 12 13 10 7 5 7 7 5 4 8 9 8 11 8 4 4 7 3 5 11 18 14 3 2 4 5 4 7 8 7 8 8 8 9 9 9 7 7 9 10 12 13 14 14 15 16 16 15 14 12 11 11 11 12 12 12 12 12 11 11 10 10 10 10 11 12 13 14 14 14 15 15 16 18 18 18 18 19 19 19 17 18
3 6 11 11 15 11 6 7 9 11 12 10 7 9 10 9 10 10 9 13 8 5 6 19 21 20 14 6 6 8 6 7 7 7 8 6 7 9 8 8 8 8 9 10 11 12 12 13 13 15 15 15 15 14 14 14 14 14 13 12 12 12 12 12 11 11 11 11 11 11 12 12 13 13 14 15 17 18 18 17 17 17 17 17 19 21
3 10 13 12 15 10 6 9 13 13 13 14 13 14 15 14 15 16 18 18 11 8 19 25 18 19 18 8 9 11 9 9 9 7 7 9 11 11 9 10 11 10 11 11 11 11 11 11 12 13 14 15 16 17 17 16 15 15 14 13 13 13 13 13 12 12 12 12 12 12 12 13 14 14 15 16 17 18 17 16 17 18 18 19 22 23
5 8 10 12 13 7 5 8 11 12 11 12 15 17 17 18 19 20 21 23 19 19 26 21 9 13 14 8 10 13 13 16 16 13 14 15 17 15 12 14 15 13 13 12 10 10 10 11 12 13 15 17 19 19 18 17 16 15 15 15 14 14 14 14 14 14 14 14 14 14 14 15 15 16 16 16 17 16 15 16 18 20 22 22 22 24
10 8 8 10 8 4 4 5 7 11 12 12 13 13 15 17 20 22 24 23 19 19 22 16 9 13 11 7 8 9 9 11 13 16 21 22 20 17 16 18 19 16 14 12 11 11 10 11 13 15 17 18 19 19 18 17 16 15 15 15 16 16 16 16 16 15 15 16 16 16 16 16 16 16 16 16 18 18 17 18 19 20 22 22 23 25
10 5 6 8 8 5 3 4 5 6 8 9 10 12 16 19 20 21 21 17 15 16 18 16 14 14 6 7 6 7 7 8 12 19 24 23 21 19 19 23 21 16 13 12 10 9 9 11 13 15 17 18 19 20 19 17 17 16 17 17 17 18 17 17 17 17 17 17 17 17 17 17 17 16 15 15 17 20 20 22 24 24 23 24 25 25
8 6 5 8 10 4 1 6 9 7 5 5 11 18 25 24 19 16 15 17 18 16 15 16 15 10 5 8 8 8 8 9 13 21 24 23 22 21 23 24 21 16 14 12 9 9 9 11 11 12 15 17 18 19 18 17 17 17 18 19 19 19 19 19 19 18 18 18 17 18 17 17 17 16 16 16 17 20 22 23 24 25 26 26 26 25
8 8 6 7 7 4 4 8 9 7 8 10 11 18 23 21 20 18 18 20 19 15 15 16 13 7 7 9 11 10 11 15 22 29 30 27 26 24 24 24 19 16 15 12 11 12 11 12 11 10 12 15 17 18 18 19 19 19 19 20 21 21 21 21 20 19 19 19 18 18 18 17 17 17 18 19 20 22 24 24 25 25 26 26 25 24
11 9 4 2 3 4 6 8 7 10 13 8 3 9 15 16 20 21 21 22 21 19 19 17 14 8 8 12 16 17 21 26 29 31 30 29 29 27 25 24 20 18 18 16 16 17 14 13 12 11 11 13 16 19 20 21 22 21 21 22 23 24 23 23 22 21 21 20 19 19 19 18 19 20 20 22 23 24 25 26 27 27 26 25 24 23
14 10 4 2 3 4 5 8 10 9 6 1 1 4 11 15 18 17 18 22 19 15 15 17 18 13 10 14 19 22 27 28 26 31 35 31 27 25 24 24 24 23 23 23 24 24 19 15 13 12 12 12 14 17 19 21 22 23 23 23 24 25 25 24 25 24 23 22 21 21 21 21 21 22 22 23 24 25 26 27 27 27 25 24 25 25
13 10 6 3 2 3 6 8 6 3 2 5 7 8 12 14 15 16 14 16 13 13 15 19 20 16 12 14 19 21 21 16 14 27 39 35 30 30 30 29 29 29 30 32 31 28 21 17 14 13 14 13 13 15 17 20 22 23 23 24 24 26 27 27 27 26 25 24 24 24 24 24 24 23 23 24 24 25 25 26 26 26 26 26 27 27
10 9 9 8 2 2 6 5 3 2 8 15 14 12 12 11 12 13 7 11 12 19 23 22 20 19 14 13 17 15 10 7 9 19 31 33 35 39 40 40 40 40 41 41 36 28 22 18 15 15 16 15 13 14 16 18 20 22 23 24 25 27 28 28 28 28 27 25 25 25 25 25 25 25 24 24 24 24 24 24 25 26 26 27 27 27
7 5 8 8 3 3 6 6 6 8 14 13 8 9 14 20 19 14 4 11 14 18 26 25 20 19 17 17 19 15 7 8 10 16 28 37 41 43 44 45 46 47 48 46 38 31 26 21 19 20 20 17 15 14 14 15 17 20 22 23 25 27 28 29 28 28 27 25 25 24 24 24 25 24 24 23 23 23 24 25 26 27 27 27 27 28
8 6 7 8 6 7 9 7 5 7 11 7 7 10 20 30 25 13 1 13 11 16 29 30 23 22 26 28 24 14 9 13 16 26 41 46 43 44 43 42 43 43 44 43 39 33 28 24 23 23 22 20 18 17 17 16 16 18 20 22 25 26 27 28 28 27 26 25 24 24 24 24 24 23 23 23 24 25 26 27 27 27 28 28 29 29
7 5 6 8 9 10 11 9 5 6 7 6 7 15 29 30 18 8 10 11 7 17 31 35 31 32 34 32 25 17 24 38 39 37 38 36 34 37 36 34 34 34 34 35 35 32 29 26 26 25 23 22 22 21 20 18 17 17 17 20 24 25 25 26 26 25 25 25 25 25 24 24 23 23 24 24 25 26 27 28 28 28 29 29 30 31
6 4 4 7 9 8 7 7 4 8 9 12 13 21 30 21 8 10 8 5 8 14 25 31 32 32 31 32 33 34 43 53 46 32 23 22 24 25 24 23 23 24 28 32 33 31 28 27 27 26 25 24 24 23 22 20 18 17 17 19 20 21 23 25 25 25 25 26 26 25 24 24 24 24 25 26 27 28 28 28 29 29 29 30 31 32
11 10 9 9 7 5 2 5 4 10 9 24 22 13 14 10 6 8 10 5 5 11 18 25 28 28 30 35 41 46 46 40 34 30 26 24 21 17 15 15 14 16 21 26 29 30 29 28 28 27 26 25 24 24 23 22 20 18 18 17 16 18 22 24 25 25 25 26 26 25 24 24 24 25 26 27 28 28 28 29 29 30 31 32 33 34
10 11 10 8 8 8 7 11 9 6 9 34 29 11 11 11 8 15 16 8 8 11 16 21 23 23 29 34 38 44 42 32 28 31 32 30 28 24 20 16 13 13 15 18 21 24 24 24 24 23 23 23 22 23 23 23 22 20 19 18 17 19 22 23 25 26 26 26 26 25 25 25 25 25 26 27 28 28 28 29 31 32 33 34 35 35
13 12 8 7 10 9 7 9 6 3 10 31 28 19 24 24 13 11 14 12 13 16 15 17 18 19 22 27 30 34 35 33 32 32 31 31 31 28 24 20 16 14 14 14 16 17 17 18 18 18 19 19 18 19 19 19 19 19 18 18 19 20 22 23 25 26 26 26 26 25 25 25 25 26 26 27 28 29 30 31 32 34 35 36 37 38
8 7 6 4 5 4 5 7 4 3 7 23 22 21 35 38 20 10 12 12 12 15 14 13 15 17 18 21 24 25 25 26 28 28 27 27 26 24 23 22 18 16 16 16 16 16 16 17 16 16 17 16 15 16 15 15 16 15 15 16 18 19 20 21 22 24 25 25 25 25 25 25 25 26 26 27 29 30 30 32 33 35 37 38 39 39
3 6 6 4 6 8 9 8 6 3 8 22 23 21 32 41 30 15 12 12 11 12 14 13 13 14 17 18 18 18 17 17 18 19 20 21 22 21 21 20 19 19 18 17 16 16 16 16 16 15 14 13 13 13 12 12 13 12 12 14 15 16 18 19 20 22 23 23 24 24 24 24 25 26 28 29 31 31 32 34 35 37 38 39 40 41
5 9 8 4 7 10 7 5 9 12 18 29 33 26 26 36 35 23 14 14 13 12 13 14 13 14 16 17 16 15 14 13 13 13 13 15 16 17 17 17 17 17 16 16 16 16 15 15 14 13 12 11 11 10 10 10 10 9 10 11 12 14 16 17 19 20 21 22 22 23 24 25 26 27 29 30 32 33 35 36 38 39 40 40 40 41
8 10 9 6 6 6 7 6 11 14 16 23 31 28 23 30 36 31 22 18 17 16 14 15 15 15 16 16 16 15 14 12 12 12 13 15 16 16 16 15 14 14 14 13 13 13 13 13 13 13 12 11 10 9 9 8 7 7 8 9 10 12 14 16 17 19 20 21 22 23 24 25 26 28 29 31 33 35 36 37 39 40 40 40 39 39
9 9 9 7 8 11 12 9 13 10 6 13 26 30 27 27 34 38 33 27 23 20 17 16 16 17 17 17 16 14 13 13 14 15 15 17 17 17 17 16 15 14 13 12 12 12 13 13 13 13 12 11 10 9 7 6 6 6 7 8 10 11 13 14 16 18 20 22 23 24 25 26 27 29 30 32 34 36 37 39 39 40 41 40 40 40
13 14 13 11 13 17 12 15 22 16 6 12 31 38 33 29 32 37 39 37 31 26 21 19 19 19 19 19 18 16 15 15 15 16 17 18 18 18 17 16 15 14 14 13 13 13 12 12 12 11 11 10 10 8 7 7 7 7 8 9 10 12 13 15 17 18 20 21 23 24 25 26 27 29 30 33 35 36 38 40 41 42 42 42 42 42
Wind_Direction
162 162 194 194 178 172 174 185 193 183 187 185 144 171 183 187 247 258 253 286 225 181 240 230 223 237 241 242 253 257 247 231 242 248 251 253 252 251 250 248 247 246 247 248 245 244 245 244 244 245 245 244 244 244 243 241 240 239 237 235 234 232 233 234 234 234 233 232 232 232 233 233 234 236 237 238 239 240 241 241 242 243 243 244 245 246
170 192 201 186 174 174 179 180 178 170 164 167 151 174 208 208 246 254 246 299 349 190 265 253 228 243 243 242 249 251 239 230 238 238 244 250 251 251 252 253 253 251 252 251 249 248 247 246 244 243 244 243 244 244 244 244 242 241 240 238 236 233 233 234 234 234 234 233 232 233 234 235 236 237 237 238 238 240 241 241 242 242 243 244 245 247
186 211 185 165 166 166 173 160 154 162 156 157 141 144 220 223 259 273 263 308 40 176 277 306 263 256 250 247 253 252 240 240 244 241 246 251 253 253 255 259 260 260 258 256 254 252 250 248 244 242 242 242 243 244 244 244 243 243 242 241 239 236 234 234 234 234 234 234 234 235 237 238 241 241 241 241 242 242 243 243 242 243 244 245 246 248
192 208 164 155 164 166 171 157 144 148 145 151 147 158 219 193 193 263 275 304 322 171 272 321 303 272 264 259 257 255 247 246 251 250 251 252 254 258 260 263 265 265 264 261 258 256 253 249 243 239 238 239 240 241 241 241 242 242 241 241 240 239 238 237 235 234 234 236 237 238 239 241 244 246 246 245 244 243 241 241 239 240 241 242 245 247
182 165 158 157 167 167 163 162 158 162 177 194 181 175 187 174 203 237 294 316 318 342 331 322 298 274 252 251 255 256 247 244 250 250 250 249 250 257 260 261 263 264 264 262 258 255 254 251 243 238 236 237 238 239 240 240 241 242 242 242 242 242 242 240 238 236 235 237 237 238 238 239 241 243 243 241 239 238 237 237 236 236 237 240 243 246
179 156 159 154 157 160 157 173 178 176 180 215 213 183 173 173 191 224 350 2 0 322 307 201 270 270 248 242 244 252 245 238 246 247 248 249 248 250 254 258 261 261 262 262 259 255 253 253 248 240 235 236 237 237 238 239 241 243 244 243 243 242 242 242 241 238 237 237 236 237 236 235 236 237 237 236 235 235 236 237 238 239 239 240 243 245
174 167 164 157 161 164 171 190 190 169 155 218 216 176 163 151 137 113 44 40 199 265 281 136 230 271 287 256 245 248 249 245 249 257 257 256 252 247 248 255 259 260 261 260 260 258 255 253 250 244 237 234 235 235 235 236 239 242 244 244 243 242 242 242 242 240 238 238 237 237 237 236 237 238 238 237 236 237 240 242 243 244 244 243 244 246
154 166 168 162 158 159 181 197 193 167 153 227 202 158 154 147 156 181 130 186 227 267 291 124 187 273 277 255 239 234 254 266 268 271 265 256 253 251 249 252 257 260 263 262 260 260 258 255 252 248 243 238 235 234 234 235 237 242 245 246 245 243 242 241 241 241 239 239 239 239 240 240 240 240 241 242 241 242 244 247 248 248 248 247 247 248
143 165 176 167 162 183 197 192 174 160 153 237 183 146 155 156 172 186 155 243 299 355 283 231 118 273 268 247 229 228 246 255 250 244 248 247 247 249 250 251 254 257 260 261 261 261 261 260 257 253 249 245 240 237 237 237 237 244 248 248 247 244 242 240 240 240 240 240 240 241 242 243 243 244 244 245 245 245 246 248 249 250 251 250 250 251
156 177 177 166 172 197 190 154 158 160 143 176 147 104 100 98 92 114 166 224 14 300 256 206 145 264 273 231 180 225 243 239 240 234 235 243 243 247 250 251 252 252 255 259 262 264 264 264 261 257 252 248 245 242 241 240 240 244 248 246 243 243 242 240 239 239 240 240 240 241 242 244 245 245 246 246 246 246 247 248 250 251 252 252 253 254
60 144 163 169 184 171 118 95 148 158 137 131 118 79 67 46 47 62 63 103 190 270 251 177 167 210 283 239 172 201 228 219 228 230 236 242 241 245 251 252 251 251 254 259 263 264 263 262 258 254 251 247 245 244 243 243 243 245 246 242 239 240 241 240 239 239 239 240 240 241 242 244 245 246 247 247 246 247 248 249 251 252 253 254 255 257
66 131 163 192 171 137 104 88 74 129 141 130 101 99 86 12 31 39 5 79 216 252 264 200 180 174 246 245 176 238 269 220 216 220 227 234 234 237 244 252 254 253 254 257 260 261 259 258 256 253 250 246 244 243 243 243 243 243 240 237 236 236 237 238 238 238 238 240 240 241 243 244 245 246 246 247 248 249 249 251 253 255 257 258 259 261
77 166 232 92 161 152 132 118 41 70 148 130 102 116 108 31 68 175 233 155 235 248 290 291 240 206 244 244 187 252 274 241 228 229 227 228 231 232 235 244 250 249 250 254 258 260 257 255 253 252 250 246 244 243 244 243 240 237 232 232 234 233 234 236 236 237 238 239 240 241 243 244 244 245 246 248 249 250 251 252 254 256 257 259 261 263
122 310 278 144 186 181 158 143 143 168 162 151 150 150 151 157 164 201 204 212 251 251 277 271 199 251 271 283 208 227 242 236 234 240 242 241 240 238 238 243 240 235 243 250 258 259 257 256 253 250 248 245 244 244 244 243 237 232 228 228 231 231 232 233 234 236 236 238 240 241 243 243 244 245 246 247 248 249 251 252 254 256 257 260 261 262
170 240 197 184 186 178 173 166 160 146 155 178 168 158 175 177 179 191 191 200 220 239 294 262 208 207 232 277 238 239 266 271 259 257 260 259 255 252 257 262 254 246 245 245 253 257 259 263 258 252 247 244 245 246 246 243 235 229 226 227 230 230 230 232 233 235 236 237 239 240 241 242 242 243 245 246 248 249 251 251 253 255 256 258 259 260
185 207 227 212 151 167 171 163 148 135 152 200 147 141 209 196 148 143 185 184 147 155 253 216 233 219 202 274 277 261 269 275 268 267 266 259 258 260 266 269 265 261 258 252 249 251 257 268 273 265 252 245 246 247 247 241 232 227 226 226 229 230 231 233 234 235 236 237 237 238 240 240 241 242 243 244 246 247 248 250 251 252 254 255 255 254
185 200 324 16 124 170 164 150 157 153 150 155 147 176 207 156 117 113 209 19 90 194 243 203 249 282 312 281 276 259 255 263 264 265 260 255 259 263 264 266 266 267 268 262 252 246 249 260 272 277 265 250 246 245 243 237 230 227 227 228 230 231 233 234 235 235 235 235 236 238 239 240 240 240 241 243 244 245 246 246 247 248 249 247 247 245
168 126 331 96 144 188 162 147 162 169 141 136 181 184 141 80 97 110 163 1 65 221 265 231 240 264 273 265 287 266 240 254 261 260 259 258 260 260 259 261 264 267 271 271 259 246 243 250 259 268 268 254 245 241 238 233 230 229 229 231 233 235 236 236 237 236 236 236 236 237 238 239 240 240 241 242 241 242 243 242 243 242 241 241 239 237
156 122 314 207 136 197 152 140 154 262 131 146 172 165 136 161 205 154 153 186 158 221 270 286 269 252 212 230 286 351 218 235 260 268 273 269 257 256 261 265 269 271 269 270 265 251 242 242 249 255 256 251 242 238 236 233 234 233 233 234 235 236 236 236 236 236 236 236 236 237 237 238 239 239 239 239 238 237 237 238 238 237 238 237 234 233
153 137 228 280 130 155 155 162 179 194 37 61 132 159 162 183 189 174 156 168 167 192 243 298 320 266 218 203 198 231 238 226 242 260 265 262 253 253 267 281 283 277 268 263 261 252 238 231 237 242 243 245 241 236 235 233 234 234 234 234 234 234 234 234 235 235 235 235 236 236 236 236 237 236 236 235 234 234 235 236 236 236 237 234 232 232
142 133 146 95 354 152 179 214 193 178 161 142 157 176 195 168 139 169 174 144 137 162 203 272 286 262 245 190 182 211 231 224 229 243 248 254 255 253 265 288 294 280 263 257 255 244 228 220 224 230 233 240 242 239 236 232 234 234 234 235 235 235 235 236 237 237 237 237 237 237 236 236 235 233 233 232 231 233 235 235 236 236 235 231 227 226
159 146 142 142 167 174 210 263 211 182 179 177 176 180 187 171 127 162 205 202 117 159 181 178 264 267 243 191 195 205 218 224 229 236 246 254 259 255 255 270 287 278 249 245 246 227 215 212 215 222 227 236 241 240 237 234 234 236 236 237 238 237 237 237 237 238 238 238 237 236 235 233 232 231 230 230 230 232 233 234 235 234 231 228 225 224
104 106 118 131 174 197 248 281 249 214 185 177 210 192 173 174 159 170 204 203 123 172 165 115 266 273 235 189 202 207 211 225 239 245 255 262 263 262 258 257 265 266 240 228 224 210 207 210 214 219 225 232 239 238 237 237 238 239 238 236 236 234 233 233 233 233 233 233 233 233 231 230 229 228 228 229 231 232 234 235 233 229 228 226 222 220
126 119 111 96 76 314 314 319 343 347 140 189 228 204 172 190 189 164 176 168 151 197 178 112 261 264 248 196 216 235 237 250 266 263 262 268 271 270 269 265 263 264 249 223 210 206 210 213 216 222 226 231 236 236 234 236 238 237 234 231 229 227 227 226 226 227 227 227 228 227 227 227 226 227 228 230 231 232 234 232 227 225 222 218 217 217
169 143 128 120 110 7 348 310 269 235 203 207 216 185 175 185 164 114 95 136 180 210 169 151 240 251 269 291 243 265 281 275 263 258 263 273 277 277 272 276 277 269 250 220 206 207 214 219 223 226 228 230 232 231 229 227 225 224 221 220 219 218 219 218 215 216 216 216 217 218 220 221 223 225 226 228 229 229 228 226 221 218 214 215 219 218
145 159 162 153 161 177 190 202 203 197 197 200 165 165 180 180 168 164 139 141 215 215 161 176 234 244 357 56 235 266 305 283 266 270 284 277 281 285 278 283 286 262 228 206 201 207 215 221 225 224 224 226 226 224 223 218 213 210 208 208 209 209 210 210 208 205 204 205 206 209 212 214 218 221 222 224 223 220 220 219 217 212 209 213 216 211
113 180 186 180 185 188 187 181 138 125 147 174 172 164 171 178 176 168 133 185 214 181 158 219 236 244 241 153 246 278 277 267 273 291 294 285 298 303 287 278 264 227 206 197 200 208 212 215 217 217 218 221 221 219 216 211 206 204 205 205 204 205 202 200 202 200 198 200 201 203 207 210 214 215 216 216 212 210 212 213 209 206 205 206 206 203
106 193 188 193 202 194 157 145 134 130 157 176 156 154 167 166 167 176 197 213 193 107 227 235 232 242 246 210 233 262 244 235 250 260 271 297 321 310 282 257 239 219 211 210 210 213 214 214 214 213 215 216 217 218 214 210 206 202 204 205 203 204 201 198 199 198 196 198 201 202 203 206 209 209 209 207 203 204 208 206 199 197 197 196 199 200
127 201 188 189 201 188 130 149 153 146 166 178 169 172 178 170 175 192 209 216 189 170 234 237 222 235 245 210 214 244 246 253 265 272 291 309 306 294 272 247 235 223 218 218 219 221 220 219 217 215 217 217 216 216 214 212 209 205 205 206 204 205 205 203 202 200 199 200 202 204 203 205 208 207 206 204 200 202 202 194 189 192 194 195 199 202
173 200 182 181 193 184 150 166 162 151 156 175 182 180 176 176 187 198 210 219 209 210 236 241 220 237 241 197 206 235 247 264 278 288 288 283 277 272 260 242 233 224 221 220 223 227 227 226 225 221 220 220 219 218 216 214 213 211 211 211 210 209 208 208 207 204 204 203 204 206 206 207 209 208 207 202 198 202 201 192 191 196 201 204 207 211
193 191 157 161 181 189 178 174 167 161 158 171 187 184 179 184 194 204 214 220 215 223 243 251 253 255 241 181 201 229 233 250 261 259 257 256 255 253 244 235 230 226 225 223 221 224 227 228 228 227 225 224 225 223 221 220 219 219 219 218 218 217 214 212 210 208 209 207 207 210 209 210 212 210 207 199 194 199 202 200 202 205 208 213 214 216
197 187 120 144 180 208 189 145 144 144 139 160 181 184 187 194 200 208 215 215 207 218 235 241 248 253 227 151 190 222 213 217 228 236 242 244 242 240 234 228 226 224 222 220 218 222 231 234 233 234 233 230 229 227 224 223 223 225 227 226 225 223 220 217 214 213 213 211 211 213 212 213 212 211 211 204 197 199 202 203 206 208 212 216 218 223
170 150 125 161 182 209 175 139 129 108 111 184 203 196 196 200 202 208 219 218 208 206 217 227 232 229 171 153 184 207 210 215 227 232 235 237 234 231 231 228 224 222 217 215 221 227 238 245 242 240 239 234 232 230 226 224 226 230 232 232 230 228 226 223 220 218 218 217 217 216 216 216 214 211 213 211 206 206 209 211 213 213 216 220 224 229
149 149 158 173 172 170 164 144 124 141 197 221 217 199 196 198 198 203 218 221 211 206 216 227 229 203 159 170 186 197 209 218 228 232 233 235 232 230 234 232 223 218 219 224 238 241 243 248 244 239 236 230 228 229 227 226 227 229 232 232 231 230 229 228 225 223 222 223 223 221 220 220 219 217 216 214 212 212 214 218 221 222 223 225 228 226
161 159 161 157 141 149 154 140 146 199 218 228 206 175 180 195 203 208 221 223 214 212 221 233 239 217 185 197 198 201 216 225 231 236 236 236 237 237 239 234 222 224 236 244 253 257 257 255 251 245 237 228 224 225 227 228 229 229 232 232 230 229 228 228 227 225 224 225 225 225 224 222 222 221 219 218 219 219 220 222 224 226 227 226 221 213
168 160 150 121 112 126 147 163 185 213 225 201 53 152 171 192 201 205 227 235 221 210 219 230 235 223 204 212 208 206 222 233 240 245 243 241 242 242 239 232 227 233 243 249 260 270 269 259 256 252 240 231 224 224 228 232 232 233 234 233 232 228 226 227 228 225 223 223 223 224 224 224 224 223 222 222 222 223 224 225 226 227 224 216 208 203
167 153 144 143 143 149 163 186 215 320 338 213 217 202 186 191 190 188 220 241 217 196 212 223 230 227 211 214 213 208 219 237 254 252 246 243 244 244 242 241 239 242 248 255 264 271 265 252 251 251 244 237 229 227 230 232 234 236 236 236 234 230 227 227 228 227 224 221 221 222 222 223 225 225 224 224 225 225 225 224 223 221 215 208 204 201
172 160 158 164 179 116 141 189 242 285 246 231 215 193 171 154 152 155 193 250 224 202 207 215 223 223 212 212 211 198 201 236 255 252 246 244 244 244 244 245 245 248 254 259 264 264 259 255 257 256 251 244 238 236 236 236 238 239 238 237 235 232 229 228 229 229 226 222 221 221 222 222 223 224 224 224 225 225 224 222 220 216 211 207 205 202
145 139 154 157 150 127 153 192 199 211 241 237 185 154 141 134 130 114 103 263 243 202 200 209 217 216 208 205 198 182 182 232 244 248 247 247 247 246 244 244 245 247 252 257 263 263 260 261 259 253 250 248 250 253 249 245 245 243 241 239 236 234 232 231 231 231 230 226 223 222 223 223 223 224 224 225 225 225 225 223 219 215 210 207 205 201
148 155 161 157 166 175 180 200 211 231 242 215 148 151 145 137 128 104 160 248 233 182 189 201 209 210 204 198 192 181 192 218 234 247 246 247 248 246 246 247 247 249 251 255 260 258 252 252 252 247 246 250 257 262 260 254 250 247 246 243 239 237 236 234 234 233 233 231 226 224 225 225 225 225 225 226 226 225 225 223 219 215 211 206 202 200
152 165 167 170 183 185 189 206 242 260 229 186 166 161 144 131 129 162 213 219 178 175 191 196 203 209 202 192 185 188 210 220 229 242 245 245 247 247 248 251 251 252 252 251 252 248 242 246 249 245 243 248 255 260 260 255 250 248 246 244 242 242 240 239 238 236 234 233 229 226 226 225 226 226 225 226 227 225 224 222 219 217 212 206 201 199
148 154 164 181 182 181 195 202 246 275 222 167 159 163 151 142 174 205 188 125 129 175 194 197 204 208 199 190 193 204 217 223 227 234 241 244 247 248 249 251 250 250 247 244 244 242 241 245 246 242 243 248 252 256 258 255 250 247 246 247 249 248 244 241 240 238 236 234 231 229 228 226 226 226 225 226 226 224 223 221 218 216 212 207 203 201
170 166 177 188 167 140 182 178 205 268 203 142 134 161 175 180 201 155 120 97 156 174 185 197 206 206 197 196 204 213 222 226 227 231 235 238 242 244 243 241 240 240 241 240 240 240 241 243 243 242 246 250 253 255 256 255 254 250 249 251 253 250 246 243 241 239 237 236 234 231 229 229 228 227 227 227 226 224 223 220 217 213 209 207 205 204
178 173 179 194 175 161 188 191 199 271 157 143 145 178 201 190 170 143 140 168 198 178 179 192 201 204 204 206 210 216 221 224 226 231 234 235 238 240 240 240 236 232 232 235 237 237 238 239 241 244 248 250 252 253 254 255 256 254 254 254 250 247 246 244 241 239 237 236 235 233 231 231 231 230 230 229 228 225 222 219 216 212 209 207 208 208
196 187 166 179 189 182 201 210 211 358 151 164 170 178 178 183 187 170 172 188 189 183 183 187 191 197 206 212 217 220 223 227 230 233 234 236 238 239 240 241 237 229 226 228 233 237 236 238 241 243 245 248 250 252 254 255 255 254 253 250 246 244 244 243 241 240 238 236 235 234 233 232 232 233 233 231 230 227 223 219 215 212 210 209 209 211
203 176 131 141 191 208 263 247 231 29 170 183 184 178 181 190 202 203 194 192 183 183 184 186 192 195 197 205 214 219 224 229 232 234 236 239 239 237 237 237 233 230 229 229 232 235 235 236 238 239 242 245 248 250 252 251 252 251 249 246 244 243 244 245 243 242 240 238 237 236 236 235 234 235 234 232 230 228 225 222 218 215 213 212 212 213
230 179 156 134 162 193 231 228 188 166 196 194 194 192 190 196 204 208 194 187 190 195 193 191 194 192 189 194 202 207 214 222 226 230 234 236 237 238 237 236 236 236 235 232 232 231 231 233 235 236 239 240 239 241 242 242 244 245 242 241 240 239 241 242 241 240 240 239 238 238 239 238 237 236 235 232 229 226 223 221 219 218 217 216 215 215
198 180 175 167 169 187 220 210 174 191 206 200 198 199 196 199 206 208 196 194 204 204 195 191 190 189 193 198 196 197 205 210 212 216 217 218 223 226 227 229 230 229 228 226 224 224 225 228 231 233 234 232 230 230 230 231 233 233 232 233 233 233 235 236 236 237 238 239 240 240 241 241 240 238 236 234 231 227 223 221 219 220 221 222 221 220
134 155 179 184 172 198 242 225 184 194 214 211 206 204 201 203 207 207 204 208 213 208 197 194 195 198 204 205 201 200 202 200 199 203 203 202 203 204 206 211 213 213 216 218 216 217 218 218 222 226 227 227 227 223 220 221 223 223 225 227 230 234 236 236 236 237 238 239 240 241 241 241 241 239 237 235 232 229 226 224 223 223 223 225 227 228
133 167 186 170 178 214 229 200 173 179 218 219 210 206 201 202 208 210 210 214 216 213 208 204 203 206 209 209 206 206 206 202 198 198 198 197 196 196 199 202 204 207 212 215 216 216 214 212 214 217 217 218 219 217 217 220 224 228 233 235 238 242 244 244 243 242 241 242 243 242 243 242 241 239 237 235 233 230 227 225 224 225 225 226 227 228
180 186 181 175 202 220 205 161 168 186 213 203 201 202 199 199 206 211 212 216 220 221 221 220 217 213 210 210 209 211 212 209 202 198 195 193 193 196 198 200 204 208 212 217 221 221 220 218 214 209 206 209 211 216 224 232 238 246 250 249 249 250 250 250 251 250 250 250 249 249 248 247 245 242 239 237 234 231 228 226 225 225 225 226 227 227